FW9036 Weather Reports


time (UTC)temp
F
wind
direction
speed
knots
gust
knots
rain 1hr
in
rain 24hr
in
rain mn
in
humidity
%
barometer
mb
20260509182434 81 35 0.9 2.6 0.00 0.24 0.24 74 1014.4
20260509181931 82 60 1.7 2.6 0.00 0.24 0.24 74 1014.4
20260509181430 82 115 1.7 3.5 0.00 0.24 0.24 73 1014.6
20260509180926 83 331 0.0 2.6 0.00 0.24 0.24 72 1014.4
20260509180422 83 45 2.6 3.5 0.00 0.24 0.24 73 1014.5
20260509175919 82 83 0.9 3.5 0.00 0.24 0.24 74 1014.4
20260509175415 81 102 2.6 5.2 0.00 0.24 0.24 75 1014.7
20260509174912 82 165 0.0 4.3 0.00 0.24 0.24 75 1014.8
20260509174408 81 82 1.7 3.5 0.00 0.24 0.24 75 1015.1
20260509173904 81 143 1.7 3.5 0.00 0.24 0.24 76 1014.8
20260509173403 80 126 0.0 2.6 0.00 0.24 0.24 77 1015.2
20260509172900 79 99 1.7 6.1 0.00 0.24 0.24 77 1015.2
20260509172357 79 132 3.5 4.3 0.00 0.24 0.24 76 1015.0
20260509171853 79 14 0.0 1.7 0.00 0.24 0.24 77 1015.1
20260509171349 79 180 0.0 2.6 0.00 0.24 0.24 77 1014.9
20260509170846 79 69 2.6 2.6 0.00 0.24 0.24 77 1015.1
20260509170341 80 166 0.9 2.6 0.00 0.24 0.24 77 1015.0
20260509165836 79 68 1.7 3.5 0.00 0.24 0.24 77 1015.0
20260509165331 80 106 0.9 2.6 0.00 0.24 0.24 77 1015.2
20260509164827 79 29 0.9 2.6 0.00 0.24 0.24 78 1015.2
20260509164323 78 270 2.6 2.6 0.00 0.24 0.24 78 1015.1
20260509163820 78 80 1.7 2.6 0.00 0.24 0.24 78 1015.0
20260509163316 78 117 1.7 1.7 0.00 0.24 0.24 79 1015.1
20260509162816 78 194 0.0 2.6 0.00 0.24 0.24 79 1015.3
20260509162309 77 154 0.9 2.6 0.00 0.24 0.24 80 1015.2
20260509161805 77 157 0.0 2.6 0.00 0.24 0.24 80 1015.5
20260509161301 77 138 2.6 2.6 0.00 0.24 0.24 80 1015.5
20260509160757 77 127 0.0 1.7 0.00 0.24 0.24 81 1015.4
20260509160253 76 221 0.0 1.7 0.00 0.24 0.24 81 1015.5
20260509155748 76 190 2.6 2.6 0.00 0.24 0.24 82 1015.4
20260509155245 75 140 1.7 1.7 0.00 0.24 0.24 82 1015.3
20260509154741 75 172 0.0 2.6 0.00 0.24 0.24 82 1014.9
20260509154239 75 152 2.6 2.6 0.00 0.24 0.24 82 1015.3
20260509153736 75 74 0.9 2.6 0.00 0.24 0.24 82 1015.3
20260509153231 75 66 1.7 1.7 0.00 0.24 0.24 82 1015.5
20260509152728 75 59 2.6 2.6 0.00 0.24 0.24 81 1015.1
20260509152225 75 40 2.6 2.6 0.00 0.24 0.24 81 1015.6
20260509151722 75 17 1.7 2.6 0.00 0.24 0.24 81 1015.8
20260509151218 75 101 0.0 1.7 0.00 0.24 0.24 82 1015.7
20260509150716 75 29 1.7 2.6 0.00 0.24 0.24 81 1016.0
20260509150214 75 66 1.7 2.6 0.00 0.24 0.24 81 1016.0
20260509145710 75 72 2.6 4.3 0.00 0.24 0.24 81 1015.7
20260509145206 75 90 2.6 4.3 0.00 0.24 0.24 81 1015.9
20260509144702 75 69 2.6 2.6 0.00 0.24 0.24 81 1015.9
20260509144200 74 325 0.0 2.6 0.00 0.24 0.24 81 1015.8
20260509143657 74 286 0.0 0.0 0.00 0.24 0.24 82 1015.8
20260509143154 74 74 0.9 1.7 0.00 0.24 0.24 82 1016.1
20260509142649 73 337 0.0 1.7 0.00 0.24 0.24 82 1015.8
20260509142146 73 40 0.0 1.7 0.00 0.24 0.24 83 1015.8
20260509141642 73 66 0.0 2.6 0.00 0.24 0.24 83 1015.9
20260509141138 74 84 0.9 1.7 0.00 0.24 0.24 83 1015.8
20260509140636 73 304 0.0 1.7 0.00 0.24 0.24 83 1015.7
20260509140134 73 291 0.0 1.7 0.00 0.24 0.24 84 1015.5
20260509135630 72 342 0.0 1.7 0.00 0.24 0.24 84 1015.6
20260509135129 72 0 0.0 1.7 0.00 0.24 0.24 85 1015.9
20260509134625 72 7 0.9 1.7 0.00 0.24 0.24 85 1015.9
20260509134122 71 237 1.7 2.6 0.00 0.24 0.24 86 1015.9
20260509133620 71 4 0.0 1.7 0.00 0.24 0.24 86 1015.7
20260509133117 71 0 0.0 1.7 0.00 0.24 0.24 86 1015.5
20260509132615 71 0 0.0 0.0 0.00 0.24 0.24 87 1015.4
20260509132113 71 286 0.9 1.7 0.00 0.24 0.24 87 1015.4
20260509131609 71 312 1.7 3.5 0.00 0.24 0.24 87 1015.3
20260509131106 71 353 0.9 2.6 0.00 0.24 0.24 87 1015.5
20260509130601 71 0 0.0 3.5 0.00 0.24 0.24 88 1015.4
20260509130058 72 0 0.0 1.7 0.00 0.24 0.24 88 1015.3
20260509125555 72 66 0.0 0.9 0.00 0.24 0.24 88 1015.2
20260509125051 72 90 0.0 0.0 0.00 0.24 0.24 89 1015.2
20260509124548 71 90 0.0 0.0 0.00 0.24 0.24 89 1014.9
20260509124045 71 90 0.0 0.0 0.00 0.24 0.24 90 1014.9
20260509123543 72 74 0.0 0.0 0.00 0.24 0.24 90 1015.0
20260509123039 71 74 0.0 0.0 0.00 0.24 0.24 90 1014.9
20260509122536 71 90 0.0 1.7 0.00 0.24 0.24 91 1015.0
20260509122033 71 81 0.0 0.0 0.00 0.24 0.24 91 1014.9
20260509121529 71 97 0.0 0.0 0.00 0.24 0.24 91 1014.8
20260509121027 70 97 0.9 0.9 0.00 0.24 0.24 91 1014.8
20260509120525 70 40 0.0 0.0 0.00 0.24 0.24 91 1015.0
20260509120023 70 52 1.7 1.7 0.00 0.24 0.24 91 1015.2
20260509115519 69 32 0.0 1.7 0.00 0.24 0.24 92 1015.0
20260509115018 69 270 0.0 0.0 0.00 0.24 0.24 92 1015.0
20260509114515 69 270 0.0 0.0 0.00 0.24 0.24 92 1015.0
20260509114014 69 352 0.0 1.7 0.00 0.24 0.24 92 1014.9
20260509113512 69 90 0.0 0.9 0.00 0.24 0.24 92 1014.1
20260509113010 69 120 0.0 0.0 0.00 0.24 0.24 92 1014.6
20260509112506 68 81 0.0 0.0 0.00 0.24 0.24 92 1014.3
20260509112002 68 84 0.0 0.0 0.00 0.24 0.24 92 1014.4
20260509111500 68 48 0.0 1.7 0.00 0.24 0.24 92 1014.2
20260509110957 68 60 0.0 1.7 0.00 0.24 0.24 92 1014.2
20260509110453 68 60 0.0 1.7 0.00 0.24 0.24 92 1013.8
20260509105951 68 286 1.7 1.7 0.00 0.24 0.24 92 1013.8
20260509105449 68 194 1.7 3.5 0.00 0.24 0.24 93 1013.4
20260509104946 67 82 0.9 2.6 0.00 0.24 0.24 93 1013.3
20260509104443 67 100 1.7 4.3 0.00 0.24 0.24 93 1012.9
20260509103940 67 104 2.6 5.2 0.00 0.24 0.24 93 1012.6
20260509103438 67 90 1.7 2.6 0.00 0.24 0.24 94 1012.9
20260509102936 67 119 3.5 4.3 0.00 0.24 0.24 94 1012.9
20260509102433 67 101 2.6 3.5 0.00 0.24 0.24 94 1013.0
20260509101928 66 126 0.9 5.2 0.00 0.24 0.24 94 1012.7
20260509101425 67 104 4.3 4.3 0.00 0.24 0.24 94 1012.9
20260509100923 66 106 3.5 3.5 0.00 0.24 0.24 94 1012.9
20260509100420 67 106 0.0 4.3 0.00 0.24 0.24 94 1013.0
20260509095916 66 187 0.9 3.5 0.00 0.24 0.24 94 1012.9
20260509095414 66 125 2.6 4.3 0.00 0.24 0.24 94 1013.0
20260509094910 66 110 3.5 5.2 0.00 0.24 0.24 94 1013.2
20260509094407 66 144 2.6 3.5 0.00 0.24 0.24 94 1013.3
20260509093905 66 98 2.6 2.6 0.00 0.24 0.24 94 1013.5
20260509093402 66 108 1.7 3.5 0.00 0.24 0.24 94 1013.8
20260509092900 66 117 0.0 1.7 0.00 0.24 0.24 94 1014.1
20260509092357 66 23 0.0 0.0 0.00 0.24 0.24 94 1014.3
20260509091856 66 15 0.0 0.9 0.00 0.24 0.24 94 1014.2
20260509091352 66 286 0.0 0.9 0.00 0.24 0.24 94 1014.3
20260509090850 66 165 0.0 0.0 0.00 0.24 0.24 94 1014.1
20260509090347 66 165 0.0 0.9 0.00 0.24 0.24 94 1014.0
20260509085844 66 99 0.0 2.6 0.00 0.24 0.24 94 1014.0
20260509085341 66 126 0.0 1.7 0.00 0.24 0.24 94 1014.1
20260509084838 66 99 0.0 1.7 0.00 0.24 0.24 94 1014.0
20260509084335 66 106 0.0 1.7 0.00 0.24 0.24 94 1014.0
20260509083833 66 106 1.7 1.7 0.00 0.24 0.24 94 1014.0
20260509083329 66 113 0.0 1.7 0.00 0.24 0.24 94 1013.9
20260509082826 66 120 1.7 3.5 0.00 0.24 0.24 94 1014.0
20260509082322 66 120 0.0 3.5 0.00 0.24 0.24 94 1013.9
20260509081820 66 148 0.0 2.6 0.00 0.24 0.24 94 1014.0
20260509081316 66 120 1.7 3.5 0.00 0.24 0.24 94 1014.1
20260509080815 66 124 2.6 3.5 0.00 0.24 0.24 94 1014.0
20260509080312 66 109 0.9 2.6 0.00 0.24 0.24 94 1013.9
20260509075810 66 170 1.7 2.6 0.00 0.24 0.24 94 1014.0
20260509075307 66 106 0.0 2.6 0.00 0.24 0.24 94 1014.0
20260509074804 67 154 0.0 2.6 0.00 0.24 0.24 94 1014.2
20260509074302 66 105 0.0 2.6 0.00 0.24 0.24 94 1014.2
20260509073758 66 117 0.9 2.6 0.00 0.24 0.24 94 1014.3
20260509073254 67 139 1.7 3.5 0.00 0.24 0.24 94 1014.3
20260509072751 67 126 0.0 2.6 0.00 0.24 0.24 94 1014.2
20260509072248 66 123 3.5 3.5 0.00 0.24 0.24 94 1014.2
20260509071744 67 154 0.9 2.6 0.00 0.24 0.24 94 1014.3
20260509071242 67 114 0.0 2.6 0.00 0.24 0.24 94 1014.6
20260509070738 67 145 0.0 0.0 0.00 0.24 0.24 94 1014.7
20260509070235 67 165 0.0 2.6 0.00 0.24 0.24 94 1014.8
20260509065731 67 105 0.9 1.7 0.00 0.24 0.24 94 1014.8
20260509065227 67 126 0.0 1.7 0.00 0.24 0.24 94 1015.1
20260509064724 67 131 0.0 1.7 0.00 0.24 0.24 94 1014.9
20260509064222 67 120 0.0 1.7 0.00 0.24 0.24 94 1015.1
20260509063719 67 154 0.0 0.9 0.00 0.24 0.24 94 1014.8
20260509063215 67 131 1.7 1.7 0.00 0.24 0.24 94 1015.0
20260509062713 67 140 0.0 0.0 0.00 0.24 0.24 94 1015.3
20260509062210 67 154 0.0 0.9 0.00 0.24 0.24 94 1015.2
20260509061707 67 165 0.0 1.7 0.00 0.24 0.24 94 1015.2
20260509061204 67 102 1.7 2.6 0.00 0.24 0.24 94 1015.1
20260509060701 67 103 0.9 1.7 0.00 0.24 0.24 93 1015.4
20260509060158 67 105 0.0 0.9 0.00 0.24 0.24 93 1015.4
20260509055654 67 106 0.0 0.0 0.02 0.24 0.24 93 1015.4
20260509055149 67 106 0.0 0.0 0.00 0.24 0.24 93 1015.4
20260509054646 67 194 0.0 0.0 0.00 0.24 0.24 93 1015.4
20260509054144 67 173 0.9 2.6 0.00 0.24 0.24 93 1015.5
20260509053642 67 145 0.0 2.6 0.00 0.24 0.24 93 1015.7
20260509053138 67 101 1.7 3.5 0.00 0.24 0.24 93 1015.6
20260509052636 67 106 0.0 2.6 0.00 0.24 0.24 93 1015.7
20260509052134 68 173 0.9 1.7 0.00 0.24 0.24 93 1015.8
20260509051631 68 124 1.7 1.7 0.00 0.24 0.24 93 1015.8
20260509051128 68 112 1.7 1.7 0.05 0.24 0.24 93 1016.1
20260509050626 68 102 1.7 1.7 0.12 0.24 0.24 93 1016.3
20260509050122 68 106 0.9 1.7 0.17 0.23 0.23 93 1016.6
20260509045620 68 97 2.6 2.6 0.07 0.21 0.21 92 1016.7
20260509045116 68 120 0.9 2.6 0.05 0.20 0.20 92 1017.1
20260509044613 68 353 0.0 0.0 0.05 0.20 0.20 92 1017.5
20260509044111 68 165 0.0 0.9 0.02 0.19 0.19 92 1017.6
20260509043607 68 114 0.0 1.7 0.00 0.19 0.19 92 1017.4
20260509043102 68 114 0.9 0.9 0.02 0.19 0.19 92 1017.2
20260509042559 68 102 1.7 2.6 0.07 0.19 0.19 92 1017.2
20260509042055 68 126 0.9 1.7 0.33 0.18 0.18 91 1017.4
20260509041552 68 83 0.0 0.9 0.92 0.17 0.17 91 1017.5
20260509041050 68 65 1.7 2.6 0.47 0.08 0.08 91 1017.8
20260509040548 69 180 0.0 0.9 0.17 0.02 0.02 90 1018.3
20260509040044 68 99 0.0 0.9 0.07 0.09 0.09 90 1017.7
20260509035541 68 157 0.9 0.9 0.05 0.08 0.08 90 1017.9
20260509035038 69 90 0.0 0.9 0.17 0.08 0.08 90 1017.5
20260509034536 69 69 0.9 1.7 0.38 0.07 0.07 90 1017.6
20260509034033 69 96 0.9 1.7 0.21 0.04 0.04 89 1017.5
20260509033530 69 103 0.9 1.7 0.00 0.01 0.01 89 1017.9
20260509033027 69 90 0.0 1.7 0.00 0.01 0.01 89 1017.4
20260509032524 69 81 0.0 3.5 0.00 0.01 0.01 89 1017.8
20260509032021 70 74 3.5 3.5 0.00 0.01 0.01 89 1017.5
20260509031519 70 14 0.0 3.5 0.00 0.01 0.01 88 1017.7
20260509031016 70 54 0.0 2.6 0.05 0.01 0.01 88 1017.5
20260509030514 71 81 0.0 2.6 0.05 0.01 0.01 87 1017.8
20260509030010 71 337 1.7 2.6 0.00 0.00 0.00 87 1017.6
20260509025506 71 45 1.7 1.7 0.00 0.00 0.00 87 1017.4
20260509025002 71 66 0.9 3.5 0.00 0.00 0.00 86 1017.3
20260509024458 71 36 0.0 3.5 0.00 0.00 0.00 86 1017.2
20260509023955 71 343 1.7 2.6 0.00 0.00 0.00 86 1017.4
20260509023452 71 61 2.6 2.6 0.00 0.00 0.00 86 1017.2
20260509022949 71 0 2.6 3.5 0.00 0.00 0.00 87 1017.4
20260509022446 71 52 1.7 5.2 0.00 0.00 0.00 87 1017.5
20260509021943 72 43 3.5 6.1 0.00 0.00 0.00 87 1017.5
20260509021440 72 16 1.7 2.6 0.00 0.00 0.00 87 1017.2
20260509020937 72 357 1.7 2.6 0.00 0.00 0.00 87 1017.2
20260509020436 72 23 1.7 2.6 0.00 0.00 0.00 87 1017.2
20260509015932 72 37 1.7 2.6 0.00 0.00 0.00 86 1017.0
20260509015431 73 79 0.0 4.3 0.00 0.00 0.00 86 1016.9
20260509014927 72 63 0.9 1.7 0.00 0.00 0.00 86 1016.9
20260509014424 73 81 0.0 2.6 0.00 0.00 0.00 86 1016.7
20260509013920 73 120 0.0 0.0 0.00 0.00 0.00 86 1016.7
20260509013417 73 90 0.0 2.6 0.00 0.00 0.00 85 1016.4
20260509012913 72 84 1.7 1.7 0.00 0.00 0.00 85 1016.5
20260509012410 73 106 0.0 0.0 0.00 0.00 0.00 85 1016.4
20260509011907 73 45 0.0 1.7 0.00 0.00 0.00 85 1016.3
20260509011404 72 109 0.0 1.7 0.00 0.00 0.00 85 1016.1
20260509010902 73 120 0.0 0.9 0.00 0.00 0.00 85 1015.8
20260509010359 73 106 0.0 1.7 0.00 0.00 0.00 85 1015.8
20260509005856 73 99 0.0 1.7 0.00 0.00 0.00 85 1015.9
20260509005354 73 66 0.0 1.7 0.00 0.00 0.00 85 1015.7
20260509004849 73 98 0.0 1.7 0.00 0.00 0.00 84 1015.9
20260509004346 73 90 1.7 1.7 0.00 0.00 0.00 84 1016.0
20260509003843 73 99 0.0 1.7 0.00 0.00 0.00 84 1015.9
20260509003341 73 99 0.0 0.9 0.00 0.00 0.00 84 1015.8
20260509002838 73 99 0.0 2.6 0.00 0.00 0.00 83 1015.8
20260509002335 73 109 0.9 1.7 0.00 0.00 0.00 83 1015.6
20260509001833 73 75 2.6 2.6 0.00 0.00 0.00 83 1015.5
20260509001329 73 90 0.0 1.7 0.00 0.00 0.00 83 1015.5
20260509000826 73 81 0.0 1.7 0.00 0.00 0.00 83 1015.4
20260509000325 73 90 0.0 1.7 0.00 0.00 0.00 83 1015.1
20260508235820 73 90 1.7 1.7 0.00 0.00 0.00 82 1015.1
20260508235317 73 57 1.7 2.6 0.00 0.00 0.00 82 1015.3
20260508234814 74 82 0.0 2.6 0.00 0.00 0.00 81 1015.2
20260508234310 74 81 0.0 2.6 0.00 0.00 0.00 81 1015.2
20260508233809 74 90 0.9 1.7 0.00 0.00 0.00 81 1015.0
20260508233308 74 109 1.7 2.6 0.00 0.00 0.00 80 1015.3
20260508232805 74 81 0.0 2.6 0.00 0.00 0.00 80 1015.3
20260508232301 74 103 4.3 4.3 0.00 0.00 0.00 80 1014.9
20260508231800 74 77 3.5 6.1 0.00 0.00 0.00 79 1015.1
20260508231255 74 85 1.7 3.5 0.00 0.00 0.00 79 1015.0
20260508230752 74 90 0.0 3.5 0.00 0.00 0.00 79 1014.9
20260508230248 74 86 1.7 3.5 0.00 0.00 0.00 79 1015.3
20260508225746 74 82 0.9 4.3 0.00 0.00 0.00 80 1015.1
20260508225243 74 117 2.6 6.1 0.00 0.00 0.00 80 1015.1
20260508224741 75 52 1.7 3.5 0.00 0.00 0.00 79 1015.2
20260508224238 75 61 1.7 3.5 0.00 0.00 0.00 78 1015.3
20260508223735 75 98 2.6 3.5 0.00 0.00 0.00 78 1015.1
20260508223232 75 58 2.6 3.5 0.00 0.00 0.00 77 1015.1
20260508222730 76 85 1.7 4.3 0.00 0.00 0.00 76 1014.9
20260508222227 76 55 1.7 3.5 0.00 0.00 0.00 76 1015.1
20260508221723 76 82 3.5 4.3 0.00 0.00 0.00 75 1014.9
20260508221219 76 90 2.6 3.5 0.00 0.00 0.00 75 1014.8
20260508220715 76 114 1.7 3.5 0.00 0.00 0.00 74 1014.7
20260508220212 76 81 1.7 3.5 0.00 0.00 0.00 74 1014.7
20260508215709 77 78 1.7 4.3 0.00 0.00 0.00 73 1014.7
20260508215205 76 70 2.6 3.5 0.00 0.00 0.00 73 1014.9
20260508214702 76 74 0.9 3.5 0.00 0.00 0.00 73 1014.9
20260508214200 77 90 3.5 3.5 0.00 0.00 0.00 73 1015.1
20260508213656 77 78 1.7 4.3 0.00 0.00 0.00 73 1015.3
20260508213152 77 72 3.5 3.5 0.00 0.00 0.00 72 1015.0
20260508212649 77 86 2.6 6.1 0.00 0.00 0.00 72 1014.9
20260508212146 78 112 1.7 7.0 0.00 0.00 0.00 72 1014.6
20260508211641 80 75 3.5 5.2 0.00 0.00 0.00 69 1014.5
20260508211137 80 77 4.3 6.1 0.00 0.00 0.00 68 1014.7
20260508210634 81 77 3.5 5.2 0.00 0.00 0.00 68 1014.9
20260508210132 79 67 3.5 7.0 0.00 0.00 0.00 70 1014.7
20260508205629 80 70 3.5 6.1 0.00 0.00 0.00 68 1014.8
20260508205125 81 114 2.6 5.2 0.00 0.00 0.00 67 1014.8
20260508204621 81 80 0.0 5.2 0.00 0.00 0.00 67 1014.9
20260508204118 80 77 3.5 6.1 0.00 0.00 0.00 67 1014.8
20260508203614 83 57 3.5 4.3 0.00 0.00 0.00 65 1014.5
20260508203110 81 66 3.5 6.1 0.00 0.00 0.00 66 1014.5
20260508202606 82 75 2.6 4.3 0.00 0.00 0.00 66 1014.6
20260508202104 81 37 4.3 5.2 0.00 0.00 0.00 67 1014.6
20260508201600 81 92 4.3 5.2 0.00 0.00 0.00 66 1014.5
20260508201057 82 90 1.7 5.2 0.00 0.00 0.00 66 1014.8
20260508200554 82 114 2.6 6.1 0.00 0.00 0.00 67 1014.9
20260508200049 82 116 2.6 4.3 0.00 0.00 0.00 67 1015.0
20260508195547 82 106 3.5 5.2 0.00 0.00 0.00 66 1015.1
20260508195043 80 106 2.6 3.5 0.00 0.00 0.00 68 1015.3
20260508194540 79 80 2.6 6.1 0.00 0.00 0.00 68 1015.6
20260508194037 80 77 1.7 2.6 0.00 0.00 0.00 68 1015.5
20260508193533 81 64 4.3 4.3 0.00 0.00 0.00 66 1015.9
20260508193030 80 59 0.0 4.3 0.00 0.00 0.00 68 1015.7
20260508192527 80 78 4.3 5.2 0.00 0.00 0.00 68 1015.7
20260508192024 79 97 2.6 3.5 0.00 0.00 0.00 68 1015.7
20260508191521 79 90 2.6 4.3 0.00 0.00 0.00 68 1016.0
20260508191017 79 81 2.6 3.5 0.00 0.00 0.00 68 1016.3
20260508190515 78 129 1.7 2.6 0.00 0.00 0.00 69 1016.1
20260508190011 77 87 2.6 4.3 0.00 0.00 0.00 70 1016.0
20260508185509 77 54 3.5 3.5 0.00 0.00 0.00 70 1016.2
20260508185006 77 73 3.5 4.3 0.00 0.00 0.00 70 1016.0
20260508184504 78 74 2.6 3.5 0.00 0.00 0.00 69 1016.2
20260508184000 78 85 1.7 4.3 0.00 0.00 0.00 69 1016.1
20260508183456 78 66 0.0 3.5 0.00 0.00 0.00 71 1016.2
20260508182951 77 64 3.5 6.1 0.00 0.00 0.00 71 1016.2